GLO1012 SBSP-SBRJ

Flight info

Callsign GLO1012
Flight time 0h 40m
Altitude 27000
Route NIBRU UZ171 KEVUN
Aircraft B738/M-SDE2E3FGHIRWXY/LB1

Departure

Time 2026-04-30 13:19
Airport Congonhas–Deputado Freitas Nobre Airport (SBSP)

Arrival

Time 2026-04-30 13:59
Airport Santos Dumont Airport (SBRJ)
Time Latitude Longitude Altitude Speed Heading
2026-04-30 12:37 -23.62631 -46.65878 2615 ft 0 kts 237°
2026-04-30 13:10 -23.62625 -46.65868 2615 ft 2 kts 236°
2026-04-30 13:10 -23.62615 -46.65854 2615 ft 2 kts 224°
2026-04-30 13:11 -23.62601 -46.65849 2615 ft 1 kts 156°
2026-04-30 13:11 -23.62598 -46.65850 2615 ft 0 kts 151°
2026-04-30 13:13 -23.62599 -46.65850 2615 ft 1 kts 147°
2026-04-30 13:13 -23.62615 -46.65838 2616 ft 2 kts 147°
2026-04-30 13:14 -23.62641 -46.65820 2617 ft 8 kts 147°
2026-04-30 13:14 -23.62702 -46.65778 2619 ft 13 kts 147°
2026-04-30 13:14 -23.62862 -46.65621 2625 ft 16 kts 140°
2026-04-30 13:15 -23.62955 -46.65554 2627 ft 16 kts 147°
2026-04-30 13:15 -23.63142 -46.65462 2637 ft 14 kts 147°
2026-04-30 13:15 -23.63225 -46.65404 2640 ft 14 kts 147°
2026-04-30 13:16 -23.63304 -46.65350 2642 ft 13 kts 147°
2026-04-30 13:16 -23.63379 -46.65297 2643 ft 13 kts 147°
2026-04-30 13:16 -23.63453 -46.65246 2642 ft 11 kts 147°
2026-04-30 13:17 -23.63470 -46.65234 2641 ft 0 kts 147°
2026-04-30 13:17 -23.63505 -46.65193 2640 ft 13 kts 108°
2026-04-30 13:18 -23.63447 -46.65112 2637 ft 14 kts
2026-04-30 13:18 -23.62932 -46.65461 2630 ft 118 kts 328°
2026-04-30 13:18 -23.62010 -46.66087 2723 ft 182 kts 329°
2026-04-30 13:19 -23.60863 -46.66826 3550 ft 202 kts 335°
2026-04-30 13:19 -23.59454 -46.67167 4342 ft 215 kts
2026-04-30 13:19 -23.57996 -46.66698 4867 ft 233 kts 35°
2026-04-30 13:19 -23.57036 -46.65257 5405 ft 241 kts 73°
2026-04-30 13:20 -23.57019 -46.63443 5446 ft 244 kts 109°
2026-04-30 13:20 -23.57970 -46.61982 5587 ft 234 kts 144°
2026-04-30 13:20 -23.59345 -46.61095 5699 ft 234 kts 147°
2026-04-30 13:20 -23.60370 -46.59687 5785 ft 252 kts 114°
2026-04-30 13:21 -23.61318 -46.57976 6150 ft 278 kts 130°
2026-04-30 13:21 -23.62655 -46.56388 6952 ft 286 kts 134°
2026-04-30 13:21 -23.64000 -46.54788 7847 ft 289 kts 133°
2026-04-30 13:22 -23.66659 -46.51384 9635 ft 299 kts 130°
2026-04-30 13:22 -23.67976 -46.49623 10463 ft 305 kts 130°
2026-04-30 13:22 -23.70662 -46.45595 11180 ft 349 kts 113°
2026-04-30 13:23 -23.71201 -46.43026 11932 ft 355 kts 92°
2026-04-30 13:23 -23.70565 -46.37610 13417 ft 364 kts 80°
2026-04-30 13:24 -23.69684 -46.32110 14723 ft 373 kts 80°
2026-04-30 13:24 -23.68841 -46.26454 15997 ft 381 kts 81°
2026-04-30 13:25 -23.68013 -46.20699 17234 ft 389 kts 81°
2026-04-30 13:25 -23.67172 -46.14825 18446 ft 396 kts 81°
2026-04-30 13:26 -23.65864 -46.05725 19900 ft 410 kts 80°
2026-04-30 13:26 -23.64976 -45.99554 20871 ft 419 kts 80°
2026-04-30 13:27 -23.64060 -45.93207 21803 ft 427 kts 80°
2026-04-30 13:28 -23.62652 -45.83484 23175 ft 439 kts 79°
2026-04-30 13:28 -23.61686 -45.76843 23987 ft 447 kts 79°
2026-04-30 13:28 -23.61193 -45.73454 24379 ft 451 kts 79°
2026-04-30 13:29 -23.60211 -45.66720 25147 ft 456 kts 79°
2026-04-30 13:29 -23.59201 -45.59827 25880 ft 462 kts 79°
2026-04-30 13:30 -23.57664 -45.49370 27093 ft 468 kts 79°
2026-04-30 13:31 -23.56446 -45.42343 27121 ft 473 kts 75°
2026-04-30 13:31 -23.54176 -45.31994 27120 ft 469 kts 75°
2026-04-30 13:32 -23.52681 -45.25100 27103 ft 461 kts 75°
2026-04-30 13:32 -23.51253 -45.18389 27117 ft 453 kts 75°
2026-04-30 13:33 -23.49829 -45.11701 26762 ft 453 kts 75°
2026-04-30 13:33 -23.48415 -45.05075 25912 ft 446 kts 75°
2026-04-30 13:34 -23.47712 -45.01789 25468 ft 442 kts 75°
2026-04-30 13:34 -23.45627 -44.92111 24139 ft 435 kts 74°
2026-04-30 13:35 -23.44916 -44.88902 23705 ft 433 kts 74°
2026-04-30 13:35 -23.43502 -44.82566 22712 ft 428 kts 74°
2026-04-30 13:36 -23.42112 -44.76334 21807 ft 421 kts 75°
2026-04-30 13:36 -23.41427 -44.73262 21353 ft 418 kts 75°
2026-04-30 13:36 -23.40061 -44.67138 20475 ft 412 kts 75°
2026-04-30 13:37 -23.39385 -44.64112 20035 ft 409 kts 75°
2026-04-30 13:37 -23.38046 -44.58123 19149 ft 405 kts 75°
2026-04-30 13:38 -23.36723 -44.52221 18253 ft 401 kts 75°
2026-04-30 13:38 -23.36059 -44.49258 17775 ft 399 kts 75°
2026-04-30 13:38 -23.34758 -44.43468 16908 ft 391 kts 75°
2026-04-30 13:39 -23.32864 -44.38028 16117 ft 380 kts 62°
2026-04-30 13:39 -23.30561 -44.32914 15296 ft 373 kts 62°
2026-04-30 13:40 -23.29440 -44.30405 14882 ft 371 kts 62°
2026-04-30 13:40 -23.28328 -44.27874 14473 ft 368 kts 63°
2026-04-30 13:40 -23.27233 -44.25356 14050 ft 366 kts 63°
2026-04-30 13:40 -23.26163 -44.22880 13606 ft 363 kts 63°
2026-04-30 13:41 -23.25089 -44.20389 13170 ft 360 kts 63°
2026-04-30 13:41 -23.24043 -44.17960 12747 ft 356 kts 63°
2026-04-30 13:41 -23.22995 -44.15527 12332 ft 353 kts 64°
2026-04-30 13:41 -23.21953 -44.13109 11929 ft 349 kts 64°
2026-04-30 13:42 -23.20938 -44.10756 11535 ft 346 kts 64°
2026-04-30 13:42 -23.19915 -44.08388 11145 ft 343 kts 64°
2026-04-30 13:42 -23.17868 -44.03892 10770 ft 324 kts 63°
2026-04-30 13:43 -23.16862 -44.01721 10591 ft 316 kts 63°
2026-04-30 13:43 -23.15895 -43.99629 10419 ft 308 kts 63°
2026-04-30 13:43 -23.14975 -43.97548 10249 ft 300 kts 65°
2026-04-30 13:43 -23.14115 -43.95535 10093 ft 293 kts 65°
2026-04-30 13:44 -23.13264 -43.93528 9929 ft 287 kts 65°
2026-04-30 13:44 -23.12433 -43.91569 9757 ft 281 kts 65°
2026-04-30 13:44 -23.11633 -43.89690 9600 ft 274 kts 65°
2026-04-30 13:44 -23.10839 -43.87828 9447 ft 267 kts 65°
2026-04-30 13:45 -23.09315 -43.84262 9156 ft 254 kts 65°
2026-04-30 13:45 -23.08579 -43.82541 9020 ft 248 kts 65°
2026-04-30 13:45 -23.07859 -43.80859 8888 ft 243 kts 65°
2026-04-30 13:46 -23.07145 -43.79193 8761 ft 240 kts 65°
2026-04-30 13:46 -23.06452 -43.77575 8646 ft 239 kts 65°
2026-04-30 13:46 -23.05751 -43.75941 8519 ft 239 kts 65°
2026-04-30 13:46 -23.05044 -43.74294 8391 ft 239 kts 65°
2026-04-30 13:47 -23.04339 -43.72653 8258 ft 240 kts 65°
2026-04-30 13:47 -23.03634 -43.71012 8135 ft 240 kts 65°
2026-04-30 13:47 -23.02934 -43.69385 7961 ft 242 kts 64°
2026-04-30 13:47 -23.02217 -43.67743 7771 ft 236 kts 64°
2026-04-30 13:48 -23.01521 -43.66153 7537 ft 229 kts 64°
2026-04-30 13:48 -23.00843 -43.64606 7289 ft 224 kts 64°
2026-04-30 13:48 -23.00189 -43.63113 7098 ft 219 kts 64°
2026-04-30 13:48 -22.99539 -43.61629 6928 ft 215 kts 64°
2026-04-30 13:49 -22.98906 -43.60189 6800 ft 212 kts 64°
2026-04-30 13:49 -22.98280 -43.58766 6692 ft 203 kts 64°
2026-04-30 13:49 -22.97683 -43.57408 6568 ft 195 kts 64°
2026-04-30 13:49 -22.97115 -43.56116 6454 ft 189 kts 64°
2026-04-30 13:50 -22.96551 -43.54831 6323 ft 186 kts 64°
2026-04-30 13:50 -22.95456 -43.52349 6126 ft 188 kts 63°
2026-04-30 13:50 -22.94887 -43.51056 5997 ft 191 kts 64°
2026-04-30 13:51 -22.94331 -43.49750 5781 ft 191 kts 64°
2026-04-30 13:51 -22.93779 -43.48443 5571 ft 187 kts 64°
2026-04-30 13:51 -22.93244 -43.47178 5347 ft 181 kts 64°
2026-04-30 13:51 -22.92712 -43.45919 5318 ft 190 kts 64°
2026-04-30 13:52 -22.92165 -43.44622 5302 ft 187 kts 64°
2026-04-30 13:52 -22.91625 -43.43353 5109 ft 182 kts 63°
2026-04-30 13:52 -22.91098 -43.42112 4832 ft 183 kts 63°
2026-04-30 13:52 -22.90564 -43.40852 4527 ft 182 kts 63°
2026-04-30 13:53 -22.90045 -43.39603 4255 ft 181 kts 65°
2026-04-30 13:53 -22.89530 -43.38378 3963 ft 180 kts 63°
2026-04-30 13:53 -22.89006 -43.37142 3757 ft 180 kts 65°
2026-04-30 13:53 -22.88655 -43.36308 3638 ft 179 kts 64°
2026-04-30 13:54 -22.88230 -43.34598 3308 ft 181 kts 95°
2026-04-30 13:54 -22.88332 -43.33244 3136 ft 180 kts 92°
2026-04-30 13:54 -22.88383 -43.31903 2932 ft 179 kts 91°
2026-04-30 13:54 -22.88429 -43.30556 2762 ft 175 kts 91°
2026-04-30 13:55 -22.88472 -43.29253 2605 ft 171 kts 92°
2026-04-30 13:55 -22.88514 -43.27994 2385 ft 166 kts 92°
2026-04-30 13:55 -22.88555 -43.26764 2074 ft 164 kts 92°
2026-04-30 13:55 -22.88844 -43.25587 1768 ft 160 kts 115°
2026-04-30 13:56 -22.89268 -43.24521 1517 ft 151 kts 112°
2026-04-30 13:56 -22.89659 -43.23475 1198 ft 150 kts 112°
2026-04-30 13:56 -22.90043 -43.22443 1033 ft 139 kts 112°
2026-04-30 13:56 -22.90420 -43.21469 1173 ft 148 kts 116°
2026-04-30 13:57 -22.90980 -43.20526 1390 ft 149 kts 132°
2026-04-30 13:57 -22.91785 -43.19812 1601 ft 151 kts 149°
2026-04-30 13:57 -22.92738 -43.19338 1540 ft 150 kts 158°
2026-04-30 13:57 -22.93690 -43.18944 1378 ft 142 kts 159°
2026-04-30 13:58 -22.94458 -43.18281 1055 ft 148 kts 123°
2026-04-30 13:58 -22.94316 -43.16639 602 ft 138 kts 40°
2026-04-30 13:58 -22.93455 -43.16228 690 ft 130 kts 12°
2026-04-30 13:59 -22.92542 -43.16188 260 ft 135 kts 360°
2026-04-30 13:59 -22.91629 -43.16246 28 ft 130 kts 358°
2026-04-30 13:59 -22.90937 -43.16287 17 ft 50 kts 356°
2026-04-30 13:59 -22.90811 -43.16305 18 ft 3 kts 306°
2026-04-30 14:00 -22.90809 -43.16328 18 ft 3 kts 271°
2026-04-30 14:00 -22.90808 -43.16372 19 ft 3 kts 268°
2026-04-30 14:00 -22.90809 -43.16394 20 ft 3 kts 266°
2026-04-30 14:01 -22.90811 -43.16430 19 ft 7 kts 266°
2026-04-30 14:01 -22.90813 -43.16477 19 ft 6 kts 266°
2026-04-30 14:01 -22.90816 -43.16512 18 ft 5 kts 262°
2026-04-30 14:01 -22.90833 -43.16540 18 ft 5 kts 215°
2026-04-30 14:02 -22.90863 -43.16545 18 ft 4 kts 179°
2026-04-30 14:02 -22.90894 -43.16544 18 ft 4 kts 178°
2026-04-30 14:02 -22.90924 -43.16543 56 ft 4 kts 177°
2026-04-30 14:02 -22.90953 -43.16541 29 ft 4 kts 177°
2026-04-30 14:03 -22.90991 -43.16539 29 ft 7 kts 177°
2026-04-30 14:03 -22.91044 -43.16537 29 ft 8 kts 177°
2026-04-30 14:03 -22.91094 -43.16527 29 ft 7 kts 166°
2026-04-30 14:03 -22.91144 -43.16518 29 ft 7 kts 177°
2026-04-30 14:04 -22.91167 -43.16554 29 ft 6 kts 261°
2026-04-30 14:04 -22.91169 -43.16583 29 ft 0 kts 266°